Simultaneous Nadir Overpasses (SNOs) Predictions

Prediction of SNOs between NOAA-20 and AQUA Satellite Orbit:

Table of predicted SNOs for the next 14.0 days since TLE Epoch: 5/31/2025
Index Date (NOAA-20) Time (NOAA-20) Lat,Lon (NOAA-20) SZA (NOAA-20 ) Date (AQUA) Time (AQUA) Lat,Lon (AQUA) SZA (AQUA ) Distance(km) Time Diff (sec)
1 06/01/2025 07:01:33 -81.30,-172.27 115.37 06/01/2025 07:02:11 -81.29,-172.13 115.41 2.42 38
2 06/01/2025 07:52:17 81.30, -4.70 64.60 06/01/2025 07:51:29 81.29, -4.55 64.60 2.80 48
3 06/03/2025 16:32:29 -81.30, 45.30 115.70 06/03/2025 16:33:15 -81.31, 45.48 115.75 3.24 46
4 06/03/2025 17:23:13 81.29,-147.14 64.27 06/03/2025 17:22:33 81.30,-146.98 64.27 2.80 40
5 06/06/2025 02:03:26 -81.30, -97.56 115.92 06/06/2025 02:04:20 -81.29, -97.56 115.96 0.67 54
6 06/06/2025 02:54:09 81.29, 70.38 63.99 06/06/2025 02:53:37 81.30, 70.32 64.02 1.35 32
7 06/08/2025 11:34:22 -81.30, 119.94 116.17 06/08/2025 11:35:23 -81.30, 119.91 116.20 0.63 61
8 06/08/2025 12:25:06 81.29, -72.51 63.80 06/08/2025 12:24:41 81.29, -72.63 63.83 2.16 25
9 06/10/2025 21:05:19 -81.30, -22.98 116.31 06/10/2025 21:06:26 -81.29, -22.88 116.36 1.70 67
10 06/10/2025 21:56:02 81.29, 144.97 63.60 06/10/2025 21:55:43 81.30, 144.93 63.62 1.08 19
11 06/13/2025 06:36:14 -81.30,-165.54 116.46 06/13/2025 06:37:27 -81.30,-165.54 116.50 0.08 73



Historial Predications of SNOs between NOAA-20 and AQUA
